Voltar ao catálogo

NAVSTAR 85

USA 581

AtivoNavegaçãoHEO
NORAD 67588·PAYLOAD·🇺🇸 United States

Lançado Jan 28, 2026 de Cape Canaveral Space Force Station

Loading…

Próximas Passagens (próximas 24 horas)

TLE

AtualizadoSource: CelesTrak SupGP

Época: Sep 14, 2026, 00:00 UTC

1 67588C 26017A   26257.00000000  .00000000  00000+0  00000+0 0  2577
2 67588  55.1509  85.1912 0020808 263.2658 138.7099  2.00568984    17

Acompanhe NAVSTAR 85 em tempo real com AllMySat

Download on the App Store